Location: Miles
(41.4492°N, 81.6087°W)
Time: 22:54:22
(UTC+00:00)

Explorer 11/Cluster Stage 4 - Pass Details

Date: 15 September 2024
Orbit: 464 x 1208 km, 28.8° (Epoch: 06 October)

Event Time Altitude Azimuth Distance (km) Brightness Sun altitude
Rises 10:25:53 0° 201° (SSW) 3,411 9.5 -8.5°
Reaches altitude 10° 10:30:20 10° 170° (S) 2,673 9.3 -7.7°
Maximum altitude 10:32:27 12° 150° (SSE) 2,636 9.5 -7.3°
Drops below altitude 10° 10:34:42 10° 131° (SE) 2,844 10.0 -6.9°
Sets 10:39:53 0° 103° (ESE) 3,961 11.7 -5.9°
